Basel, France

1:07 PM CEST on July 28, 2017 (GMT +0200)
Basle-Mulhouse

Weather History for LFSB - November, 2012

Change the Weather History Date:

Sunday, November 18, 2012

  Actual Average Record
Temperature  
Mean Temperature 47 °F -  
Max Temperature 54 °F 42 °F 64 °F (2015)
Min Temperature 39 °F 31 °F 24 °F (1998)
Degree Days  
Heating Degree Days 18    
Moisture  
Dew Point 40 °F    
Average Humidity 82    
Maximum Humidity 93    
Minimum Humidity 58    
Precipitation  
Precipitation 0.00 in - - ()
Sea Level Pressure  
Sea Level Pressure 29.92 in    
Wind  
Wind Speed 6 mph ()    
Max Wind Speed 10 mph    
Max Gust Speed -    
Visibility 5.2 miles    
Events      
Averages and records for this station are not official NWS values.
T = Trace of Precipitation, MM = Missing Value Source: Averaged Metar Reports

Daily Weather History Graph

Daily Weather History Graph

Search for Another Location

Airport or City:

Trip Planner

Search our weather history database for the weather conditions in past years. The results will help you decide how hot, cold, wet, or windy it might be!

Date:

Astronomy

Nov. 18, 2012 Rise Set
Actual Time 7:39 AM CET 4:50 PM CET
Civil Twilight 7:05 AM CET 5:23 PM CET
Nautical Twilight 6:28 AM CET 6:01 PM CET
Astronomical Twilight 5:51 AM CET 6:38 PM CET
Moon 11:52 AM CET (11/18) 9:55 PM CET (11/18)
Length of Visible Light 10h 18m
Length of Day
9h 10m
Waxing Crescent, 27% of the Moon is Illuminated
Nov 18
Waxing Crescent
Nov 20
First Quarter
Nov 28
Full
Dec 6
Last Quarter
Dec 13
New

Hourly Weather History & Observations

Time (CET) Temp. Windchill Dew Point Humidity Pressure Visibility Wind Dir Wind Speed Gust Speed Precip Events Conditions
12:00 AM 46.4 °F 42.4 °F 39.2 °F 76% 29.89 in 5.0 mi SE 8.1 mph - N/A   Mostly Cloudy
12:30 AM 46.4 °F 42.4 °F 39.2 °F 76% 29.92 in 6.2 mi SE 8.1 mph - N/A   Overcast
1:00 AM 46 °F - 40 °F 74% 29.93 in 6 mi SE 6.9 mph - -   Clear
1:00 AM 46.4 °F 42.9 °F 41.0 °F 81% 29.89 in 5.6 mi SE 6.9 mph - N/A   Overcast
1:30 AM 46.4 °F 42.9 °F 41.0 °F 81% 29.89 in 5.6 mi SE 6.9 mph - N/A   Overcast
2:00 AM 44.6 °F 41.4 °F 41.0 °F 87% 29.89 in 6.2 mi SE 5.8 mph - N/A   Overcast
2:30 AM 44.6 °F 40.2 °F 39.2 °F 81% 29.89 in 5.6 mi SE 8.1 mph - N/A   Mostly Cloudy
3:00 AM 42.8 °F 39.3 °F 37.4 °F 81% 29.89 in 5.0 mi SE 5.8 mph - N/A   Mostly Cloudy
3:30 AM 42.8 °F 39.3 °F 39.2 °F 87% 29.89 in 5.0 mi SSE 5.8 mph - N/A   Mostly Cloudy
4:00 AM 42.8 °F 39.3 °F 37.4 °F 81% 29.89 in 4.3 mi SSE 5.8 mph - N/A   Mostly Cloudy
4:30 AM 42.8 °F 40.1 °F 39.2 °F 87% 29.89 in 4.3 mi South 4.6 mph - N/A   Mostly Cloudy
5:00 AM 41.0 °F 38.0 °F 39.2 °F 93% 29.89 in 3.7 mi South 4.6 mph - N/A   Mostly Cloudy
5:30 AM 42.8 °F 38.6 °F 39.2 °F 87% 29.89 in 3.7 mi SSE 6.9 mph - N/A   Mostly Cloudy
6:00 AM 42.8 °F 38.6 °F 39.2 °F 87% 29.89 in 4.3 mi South 6.9 mph - N/A   Scattered Clouds
6:30 AM 41.0 °F 37.1 °F 37.4 °F 87% 29.89 in 4.3 mi South 5.8 mph - N/A   Scattered Clouds
7:00 AM 41 °F - 38 °F 87% 29.93 in 4 mi South 5.8 mph - -   Partly Cloudy
7:00 AM 41.0 °F 37.1 °F 39.2 °F 93% 29.89 in 4.3 mi South 5.8 mph - N/A   Scattered Clouds
7:30 AM 42.8 °F 38.6 °F 39.2 °F 87% 29.89 in 4.3 mi SSE 6.9 mph - N/A   Mostly Cloudy
8:00 AM 42.8 °F 39.3 °F 39.2 °F 87% 29.89 in 5.0 mi SSE 5.8 mph - N/A   Mostly Cloudy
8:30 AM 42.8 °F 39.3 °F 39.2 °F 87% 29.92 in 5.0 mi SSE 5.8 mph - N/A   Mostly Cloudy
9:00 AM 42.8 °F 38.6 °F 39.2 °F 87% 29.92 in 5.0 mi SE 6.9 mph - N/A   Mostly Cloudy
9:30 AM 44.6 °F 40.7 °F 41.0 °F 87% 29.92 in 5.6 mi SSE 6.9 mph - N/A   Mostly Cloudy
10:00 AM 44.6 °F 42.2 °F 41.0 °F 87% 29.92 in 5.6 mi South 4.6 mph - N/A   Mostly Cloudy
10:30 AM 46.4 °F 43.5 °F 41.0 °F 81% 29.92 in 6.2 mi SSE 5.8 mph - N/A   Mostly Cloudy
11:00 AM 46.4 °F 42.9 °F 41.0 °F 81% 29.92 in 6.2 mi SSE 6.9 mph - N/A   Mostly Cloudy
11:30 AM 48.2 °F - 41.0 °F 76% 29.92 in 6.2 mi SSE 6.9 mph - N/A   Mostly Cloudy
12:00 PM 48.2 °F - 41.0 °F 76% 29.92 in 6.2 mi SSE 10.4 mph - N/A   Mostly Cloudy
12:30 PM 50.0 °F - 41.0 °F 71% 29.92 in 6.2 mi SSE 8.1 mph - N/A   Mostly Cloudy
1:00 PM 52 °F - 42 °F 58% 29.92 in 9 mi SE 8.1 mph - -   Scattered Clouds
1:00 PM 51.8 °F - 41.0 °F 67% 29.92 in 6.2 mi SE 8.1 mph - N/A   Mostly Cloudy
1:30 PM 53.6 °F - 42.8 °F 67% 29.92 in 6.2 mi ESE 5.8 mph - N/A   Mostly Cloudy
2:00 PM 53.6 °F - 42.8 °F 67% 29.89 in 6.2 mi ESE 6.9 mph - N/A   Mostly Cloudy
2:30 PM 53.6 °F - 42.8 °F 67% 29.89 in 6.2 mi ESE 5.8 mph - N/A   Mostly Cloudy
3:00 PM 53.6 °F - 42.8 °F 67% 29.89 in 6.2 mi SE 6.9 mph - N/A   Mostly Cloudy
3:30 PM 51.8 °F - 41.0 °F 67% 29.92 in 6.2 mi SE 6.9 mph - N/A   Mostly Cloudy
4:00 PM 51.8 °F - 42.8 °F 71% 29.92 in 6.2 mi SSE 4.6 mph - N/A   Mostly Cloudy
4:30 PM 50.0 °F - 42.8 °F 76% 29.92 in 6.2 mi South 4.6 mph - N/A   Mostly Cloudy
5:00 PM 46.4 °F 44.3 °F 41.0 °F 81% 29.92 in - SSE 4.6 mph - N/A   Clear
5:30 PM 46.4 °F 44.3 °F 41.0 °F 81% 29.92 in - South 4.6 mph - N/A   Clear
6:00 PM 44.6 °F 41.4 °F 41.0 °F 87% 29.92 in - South 5.8 mph - N/A   Clear
6:30 PM 44.6 °F 42.2 °F 41.0 °F 87% 29.95 in - South 4.6 mph - N/A   Clear
7:00 PM 44 °F - 40 °F 83% 29.98 in 6 mi South 5.8 mph - -   Scattered Clouds
7:00 PM 44.6 °F 41.4 °F 41.0 °F 87% 29.95 in 5.6 mi South 5.8 mph - N/A   Unknown
7:30 PM 42.8 °F 40.1 °F 41.0 °F 93% 29.95 in 5.0 mi South 4.6 mph - N/A   Unknown
8:00 PM 42.8 °F 40.1 °F 39.2 °F 87% 29.95 in 5.0 mi South 4.6 mph - N/A   Unknown
8:30 PM 42.8 °F 39.3 °F 39.2 °F 87% 29.98 in 3.7 mi South 5.8 mph - N/A   Unknown
9:00 PM 41.0 °F 37.1 °F 39.2 °F 93% 29.98 in 3.7 mi South 5.8 mph - N/A   Unknown
9:30 PM 41.0 °F 38.0 °F 39.2 °F 93% 29.98 in 3.7 mi South 4.6 mph - N/A   Unknown
10:00 PM 41.0 °F 38.0 °F 37.4 °F 87% 29.98 in 3.7 mi South 4.6 mph - N/A   Unknown
10:30 PM 41.0 °F 38.0 °F 39.2 °F 93% 29.98 in 3.7 mi South 4.6 mph - N/A   Unknown
11:00 PM 41.0 °F 38.0 °F 37.4 °F 87% 29.98 in 3.7 mi South 4.6 mph - N/A   Unknown
11:30 PM 39.2 °F 37.0 °F 37.4 °F 93% 29.98 in 3.1 mi South 3.5 mph - N/A   Unknown